Location: ????????
(56.1167°N, 38.6333°E)
Time: 07:44:38
(UTC+00:00)

JB-3 - Pass Details

Date: 18 November 2025
Orbit: 489 x 537 km, 97.3° (Epoch: 14 December)

Event Time Altitude Azimuth Distance (km) Brightness Sun altitude
Rises 14:13:50 0° 13° (NNE) 2,693 7.5 -8.4°
Reaches altitude 10° 14:15:58 10° 13° (NNE) 1,791 6.6 -8.7°
Maximum altitude 14:19:50 82° 286° (WNW) 537 4.3 -9.2°
Drops below altitude 10° 14:23:37 10° 199° (SSW) 1,749 7.5 -9.7°
Sets 14:25:41 0° 198° (SSW) 2,623 8.4 -9.9°
